Regional Weather Roundup
Issued by NWS Sioux Falls, SD

Home | Current Version | Previous Version | Text Only | Print | Product List | Glossary Off
Versions: 1 2 3 4 5 6 7 8 9 10 11 12 13 14 15 16 17 18 19 20 21 22 23 24 25 26 27 28 29 30 31 32 33 34 35 36 37 38 39 40 41 42 43 44 45 46 47 48 49 50

000
ASUS43 KFSD 211410
RWRFSD

WEATHER ROUNDUP FOR SE SOUTH DAKOTA/SW MINNESOTA/NW IOWA
NATIONAL WEATHER SERVICE SIOUX FALLS SD
900 AM CDT TUE OCT 21 2014

NOTE: "FAIR" INDICATES FEW OR NO CLOUDS BELOW 12,000 FEET WITH NO
SIGNIFICANT WEATHER AND OR OBSTRUCTIONS TO VISIBILITY.


SDZ038>040-050-052>070-211500-
SOUTHEAST SOUTH DAKOTA

CITY           SKY/WX    TMP DP  RH WIND       PRES   REMARKS
CHAMBERLAIN    CLEAR     47  40  76 SE8       29.94S
HURON          CLEAR     52  37  56 S14G20    29.97S
MADISON        FAIR      46  39  76 SE9       30.06S
MITCHELL       SUNNY     51  38  60 SE14      30.01S
SIOUX FALLS    SUNNY     50  40  68 SE8       30.08R
WINNER         FAIR      59  40  49 S20G29    29.92S
YANKTON        SUNNY     43  39  87 E6        30.06S
$$

MNZ071-072-080-081-089-090-097-098-211500-
SOUTHWEST MINNESOTA

CITY           SKY/WX    TMP DP  RH WIND       PRES   REMARKS
FAIRMONT       MOSUNNY   39  36  87 SE7       30.15R
JACKSON        MOSUNNY   43  37  81 SE5       30.14R
LUVERNE        SUNNY     43  37  81 CALM      30.11R
MARSHALL       SUNNY     39  34  81 SE10      30.10R
MONTEVIDEO     SUNNY     43  39  87 S9        30.12R
PIPESTONE      SUNNY     48  37  66 S9        30.08S
REDWOOD FALLS  SUNNY     42  38  85 E9        30.13S
TRACY          SUNNY     48  40  75 S9        30.11S
WINDOM         MOSUNNY   43  39  87 CALM      30.13S
WORTHINGTON    MOSUNNY   45  39  81 SE5       30.13S
$$

IAZ001>003-012>014-020>022-031-032-NEZ013-014-SDZ071-211500-
NORTHWEST IOWA

CITY           SKY/WX    TMP DP  RH WIND       PRES   REMARKS
CHEROKEE       SUNNY     38  38  99 CALM      30.13R
DENISON        SUNNY     39  39 100 CALM      30.11S
ESTHERVILLE    SUNNY     39  37  92 E5        30.14R FOG
LE MARS        SUNNY     41  37  87 CALM      30.11S
ORANGE CITY    SUNNY     46  39  76 SE3       30.11S
SHELDON        SUNNY     43  39  87 CALM      30.10S
SIOUX CITY     SUNNY     43  39  86 SE3       30.11S
SPENCER        SUNNY     39  36  89 CALM      30.14R
STORM LAKE     SUNNY     46  41  81 VRB6      30.14R
$$

ABBREVIATIONS USED IN REMARKS
   TC - TEMPERATURE IN CELSIUS
  WCI - WIND CHILL INDEX
   HX - HEAT INDEX
  VSB - VISIBILITY



USA.gov is the U.S. government's official web portal to all federal, state and local government web resources and services.